TimeMDT,TemperatureF,Dew PointF,Humidity,Sea Level PressureIn,VisibilityMPH,Wind Direction,Wind SpeedMPH,Gust SpeedMPH,PrecipitationIn,Events,Conditions,WindDirDegrees,DateUTC
12:53 AM,24.1,16.0,71,30.10,10.0,ENE,10.4,-,N/A,,Mostly Cloudy,60,2013-03-19 06:53:00
1:53 AM,21.0,14.0,74,30.14,10.0,NNE,11.5,-,N/A,,Scattered Clouds,30,2013-03-19 07:53:00
2:53 AM,21.0,14.0,74,30.19,10.0,North,5.8,-,N/A,,Overcast,10,2013-03-19 08:53:00
3:39 AM,21.2,15.8,80,30.07,2.5,NNE,5.8,-,0.00,Snow,Light Snow,20,2013-03-19 09:39:00
3:47 AM,21.2,15.8,80,30.08,1.2,NNW,5.8,-,0.01,Snow,Light Snow,340,2013-03-19 09:47:00
3:53 AM,21.0,16.0,81,30.22,1.2,North,4.6,-,0.01,Snow,Light Snow,350,2013-03-19 09:53:00
4:03 AM,19.4,15.8,86,30.09,1.8,North,3.5,-,0.00,Snow,Light Snow,360,2013-03-19 10:03:00
4:11 AM,19.4,15.8,86,30.09,2.5,Calm,Calm,-,0.00,Snow,Light Snow,0,2013-03-19 10:11:00
4:19 AM,19.4,15.8,86,30.10,3.0,NW,3.5,-,0.00,Snow,Light Snow,310,2013-03-19 10:19:00
4:28 AM,19.4,15.8,86,30.10,3.0,NW,3.5,-,0.00,Snow,Light Snow,310,2013-03-19 10:28:00
4:53 AM,19.0,15.1,85,30.25,5.0,WNW,4.6,-,0.00,,Overcast,300,2013-03-19 10:53:00
5:12 AM,19.4,15.8,86,30.11,4.0,Calm,Calm,-,0.00,Snow,Light Snow,0,2013-03-19 11:12:00
5:53 AM,17.1,14.0,88,30.27,10.0,Calm,Calm,-,0.00,,Overcast,0,2013-03-19 11:53:00
6:22 AM,17.6,14.0,86,30.14,10.0,SW,4.6,-,N/A,,Overcast,230,2013-03-19 12:22:00
6:53 AM,19.0,15.1,85,30.29,10.0,SW,3.5,-,N/A,,Overcast,230,2013-03-19 12:53:00
7:10 AM,15.8,12.2,86,30.15,10.0,SW,3.5,-,N/A,,Mostly Cloudy,220,2013-03-19 13:10:00
7:53 AM,12.9,10.0,88,30.34,7.0,SSW,4.6,-,N/A,,Clear,200,2013-03-19 13:53:00
8:53 AM,21.0,17.1,85,30.35,10.0,SSW,4.6,-,N/A,,Clear,200,2013-03-19 14:53:00
9:53 AM,23.0,17.1,78,30.37,10.0,South,5.8,-,N/A,,Clear,190,2013-03-19 15:53:00
10:53 AM,28.9,19.9,69,30.34,10.0,South,8.1,-,N/A,,Clear,190,2013-03-19 16:53:00
11:53 AM,35.1,17.1,48,30.34,10.0,WSW,13.8,19.6,N/A,,Clear,250,2013-03-19 17:53:00
12:53 PM,37.9,7.0,28,30.33,10.0,Calm,Calm,-,N/A,,Clear,0,2013-03-19 18:53:00
1:53 PM,39.0,1.9,21,30.32,10.0,Variable,5.8,16.1,N/A,,Clear,0,2013-03-19 19:53:00
2:53 PM,41.0,3.9,21,30.31,10.0,WNW,8.1,-,N/A,,Clear,300,2013-03-19 20:53:00
3:53 PM,43.0,3.9,20,30.29,10.0,Calm,Calm,-,N/A,,Clear,0,2013-03-19 21:53:00
4:53 PM,43.0,3.0,19,30.29,10.0,South,9.2,-,N/A,,Clear,190,2013-03-19 22:53:00
5:53 PM,43.0,3.9,20,30.28,10.0,SSW,3.5,-,N/A,,Clear,210,2013-03-19 23:53:00
6:53 PM,39.9,6.1,25,30.26,10.0,East,4.6,-,N/A,,Clear,100,2013-03-20 00:53:00
7:53 PM,35.1,6.1,30,30.27,10.0,ESE,9.2,-,N/A,,Clear,110,2013-03-20 01:53:00
8:53 PM,30.0,6.1,36,30.25,10.0,East,6.9,-,N/A,,Clear,100,2013-03-20 02:53:00
9:53 PM,32.0,8.1,37,30.21,10.0,East,8.1,-,N/A,,Clear,100,2013-03-20 03:53:00
10:53 PM,30.9,9.0,40,30.17,10.0,SE,8.1,-,N/A,,Clear,140,2013-03-20 04:53:00
11:53 PM,34.0,9.0,35,30.11,10.0,SSE,13.8,-,N/A,,Scattered Clouds,160,2013-03-20 05:53:00